Time,TemperatureF,DewpointF,PressureIn,WindDirection,WindDirectionDegrees,WindSpeedMPH,WindSpeedGustMPH,Humidity,HourlyPrecipIn,Conditions,Clouds,dailyrainin,SoftwareType,DateUTC
2013-01-14 00:00:00,55.9,55.7,29.94,South,180,1.6,1.6,99,0.00,,,0.04,WeatherCatV1.11B39,2013-01-14 05:00:00,
2013-01-14 00:01:00,55.9,55.7,29.94,South,180,2.2,2.2,99,0.00,,,0.04,WeatherCatV1.11B39,2013-01-14 05:01:00,
2013-01-14 00:02:00,56.1,55.8,29.94,SE,135,2.2,2.2,99,0.00,,,0.04,WeatherCatV1.11B39,2013-01-14 05:02:00,
2013-01-14 00:07:00,56.5,56.2,29.94,South,180,0.7,0.7,99,0.00,,,0.04,WeatherCatV1.11B39,2013-01-14 05:07:00,
2013-01-14 00:13:00,56.5,56.2,29.94,South,180,1.6,1.6,99,0.00,,,0.04,WeatherCatV1.11B39,2013-01-14 05:13:00,
2013-01-14 00:18:00,56.5,56.2,29.95,South,180,2.2,2.2,99,0.00,,,0.04,WeatherCatV1.11B39,2013-01-14 05:18:00,
2013-01-14 00:23:00,57.0,56.7,29.94,South,180,1.6,2.2,99,0.00,,,0.04,WeatherCatV1.11B39,2013-01-14 05:23:00,
2013-01-14 00:28:00,57.0,56.7,29.94,South,180,1.6,3.1,99,0.00,,,0.04,WeatherCatV1.11B39,2013-01-14 05:28:00,
2013-01-14 00:34:00,57.2,56.9,29.94,South,180,3.1,3.1,99,0.00,,,0.04,WeatherCatV1.11B39,2013-01-14 05:34:00,
2013-01-14 00:39:00,57.4,57.1,29.94,South,180,3.1,3.1,99,0.00,,,0.04,WeatherCatV1.11B39,2013-01-14 05:39:00,
2013-01-14 00:44:00,57.4,57.1,29.94,South,180,0.7,1.6,99,0.00,,,0.04,WeatherCatV1.11B39,2013-01-14 05:44:00,
2013-01-14 00:49:00,57.4,57.1,29.94,SSW,202,1.6,2.2,99,0.00,,,0.04,WeatherCatV1.11B39,2013-01-14 05:49:00,
2013-01-14 00:55:00,57.6,57.3,29.94,SSW,202,2.2,2.2,99,0.00,,,0.04,WeatherCatV1.11B39,2013-01-14 05:55:00,
2013-01-14 01:00:00,57.4,57.1,29.94,South,180,2.2,2.2,99,0.00,,,0.04,WeatherCatV1.11B39,2013-01-14 06:00:00,
2013-01-14 01:05:00,57.4,57.1,29.94,South,180,3.1,3.1,99,0.00,,,0.04,WeatherCatV1.11B39,2013-01-14 06:05:00,
2013-01-14 01:10:00,57.6,57.3,29.94,SW,225,1.6,3.1,99,0.00,,,0.04,WeatherCatV1.11B39,2013-01-14 06:10:00,
2013-01-14 01:16:00,57.7,57.5,29.94,South,180,2.2,3.1,99,0.00,,,0.04,WeatherCatV1.11B39,2013-01-14 06:16:00,
2013-01-14 01:21:00,57.7,57.5,29.94,South,180,1.6,2.2,99,0.00,,,0.04,WeatherCatV1.11B39,2013-01-14 06:21:00,
2013-01-14 01:26:00,57.9,57.6,29.94,SE,135,3.1,3.1,99,0.00,,,0.04,WeatherCatV1.11B39,2013-01-14 06:26:00,
2013-01-14 01:31:00,57.9,57.6,29.94,South,180,1.6,2.2,99,0.00,,,0.04,WeatherCatV1.11B39,2013-01-14 06:31:00,
2013-01-14 01:37:00,57.7,57.5,29.94,South,180,4.5,4.5,99,0.00,,,0.04,WeatherCatV1.11B39,2013-01-14 06:37:00,
2013-01-14 01:42:00,57.9,57.6,29.94,SE,135,3.1,3.1,99,0.00,,,0.04,WeatherCatV1.11B39,2013-01-14 06:42:00,
2013-01-14 01:47:00,58.1,57.8,29.94,SE,135,3.1,4.5,99,0.00,,,0.04,WeatherCatV1.11B39,2013-01-14 06:47:00,
2013-01-14 01:52:00,58.1,57.8,29.95,South,180,2.2,4.5,99,0.00,,,0.04,WeatherCatV1.11B39,2013-01-14 06:52:00,
2013-01-14 01:58:00,58.1,57.8,29.94,South,180,2.2,2.2,99,0.00,,,0.04,WeatherCatV1.11B39,2013-01-14 06:58:00,
2013-01-14 02:03:00,58.1,57.8,29.94,South,180,2.2,2.2,99,0.00,,,0.04,WeatherCatV1.11B39,2013-01-14 07:03:00,
2013-01-14 02:08:00,58.1,57.8,29.94,South,180,2.2,2.2,99,0.00,,,0.04,WeatherCatV1.11B39,2013-01-14 07:08:00,
2013-01-14 02:13:00,58.3,58.0,29.94,South,180,1.6,1.6,99,0.00,,,0.04,WeatherCatV1.11B39,2013-01-14 07:13:00,
2013-01-14 02:19:00,58.3,58.0,29.95,East,90,0.7,0.7,99,0.00,,,0.04,WeatherCatV1.11B39,2013-01-14 07:19:00,
2013-01-14 02:24:00,58.3,58.0,29.95,South,180,0.0,0.0,99,0.00,,,0.04,WeatherCatV1.11B39,2013-01-14 07:24:00,
2013-01-14 02:29:00,58.1,57.8,29.96,NNW,337,0.7,0.7,99,0.00,,,0.04,WeatherCatV1.11B39,2013-01-14 07:29:00,
2013-01-14 02:34:00,57.9,57.6,29.96,North,0,0.7,0.7,99,0.00,,,0.04,WeatherCatV1.11B39,2013-01-14 07:34:00,
2013-01-14 02:40:00,58.1,57.8,29.96,SW,225,0.7,1.6,99,0.00,,,0.04,WeatherCatV1.11B39,2013-01-14 07:40:00,
2013-01-14 02:45:00,58.5,58.2,29.96,South,180,1.6,1.6,99,0.00,,,0.04,WeatherCatV1.11B39,2013-01-14 07:45:00,
2013-01-14 02:50:00,58.5,58.2,29.97,SE,135,2.2,2.2,99,0.00,,,0.04,WeatherCatV1.11B39,2013-01-14 07:50:00,
2013-01-14 02:55:00,58.5,58.2,29.96,South,180,1.6,1.6,99,0.00,,,0.04,WeatherCatV1.11B39,2013-01-14 07:55:00,
2013-01-14 03:01:00,58.5,58.2,29.96,South,180,0.7,0.7,99,0.00,,,0.04,WeatherCatV1.11B39,2013-01-14 08:01:00,
2013-01-14 03:06:00,58.5,58.2,29.95,South,180,2.2,2.2,99,0.00,,,0.04,WeatherCatV1.11B39,2013-01-14 08:06:00,
2013-01-14 03:11:00,58.5,58.2,29.94,South,180,1.6,1.6,99,0.00,,,0.04,WeatherCatV1.11B39,2013-01-14 08:11:00,
2013-01-14 03:16:00,58.3,58.0,29.94,South,180,1.6,2.2,99,0.00,,,0.04,WeatherCatV1.11B39,2013-01-14 08:16:00,
2013-01-14 03:22:00,58.1,57.8,29.94,South,180,1.6,2.2,99,0.00,,,0.04,WeatherCatV1.11B39,2013-01-14 08:22:00,
2013-01-14 03:27:00,58.1,57.8,29.93,South,180,2.2,2.2,99,0.00,,,0.04,WeatherCatV1.11B39,2013-01-14 08:27:00,
2013-01-14 03:32:00,58.1,57.8,29.94,South,180,0.7,0.7,99,0.00,,,0.04,WeatherCatV1.11B39,2013-01-14 08:32:00,
2013-01-14 03:38:00,58.1,57.8,29.93,SE,135,2.2,2.2,99,0.00,,,0.04,WeatherCatV1.11B39,2013-01-14 08:38:00,
2013-01-14 03:43:00,58.1,57.8,29.93,South,180,2.2,2.2,99,0.00,,,0.04,WeatherCatV1.11B39,2013-01-14 08:43:00,
2013-01-14 03:48:00,58.1,57.8,29.92,SE,135,1.6,2.2,99,0.00,,,0.04,WeatherCatV1.11B39,2013-01-14 08:48:00,
2013-01-14 03:53:00,58.1,57.8,29.93,SE,135,2.2,3.1,99,0.00,,,0.04,WeatherCatV1.11B39,2013-01-14 08:53:00,
2013-01-14 03:59:00,58.1,57.8,29.92,SE,135,3.1,3.1,99,0.00,,,0.04,WeatherCatV1.11B39,2013-01-14 08:59:00,
2013-01-14 04:04:00,58.3,58.0,29.94,SE,135,0.0,0.0,99,0.00,,,0.04,WeatherCatV1.11B39,2013-01-14 09:04:00,
2013-01-14 04:09:00,58.1,57.8,29.93,SE,135,1.6,2.2,99,0.00,,,0.04,WeatherCatV1.11B39,2013-01-14 09:09:00,
2013-01-14 04:14:00,58.3,58.0,29.91,SSE,157,1.6,3.1,99,0.00,,,0.04,WeatherCatV1.11B39,2013-01-14 09:14:00,
2013-01-14 04:19:00,58.3,58.0,29.94,North,0,3.8,3.8,99,0.00,,,0.04,WeatherCatV1.11B39,2013-01-14 09:19:00,
2013-01-14 04:25:00,58.3,58.0,29.93,South,180,0.0,0.0,99,0.00,,,0.04,WeatherCatV1.11B39,2013-01-14 09:25:00,
2013-01-14 04:30:00,58.3,58.0,29.92,SW,225,1.6,2.2,99,0.00,,,0.04,WeatherCatV1.11B39,2013-01-14 09:30:00,
2013-01-14 04:35:00,58.5,58.2,29.92,South,180,0.0,2.2,99,0.00,,,0.04,WeatherCatV1.11B39,2013-01-14 09:35:00,
2013-01-14 04:41:00,58.3,58.0,29.92,SE,135,2.2,2.2,99,0.00,,,0.04,WeatherCatV1.11B39,2013-01-14 09:41:00,
2013-01-14 04:46:00,58.5,58.2,29.94,South,180,2.2,2.2,99,0.00,,,0.04,WeatherCatV1.11B39,2013-01-14 09:46:00,
2013-01-14 04:51:00,58.3,58.0,29.94,South,180,0.7,0.7,99,0.00,,,0.04,WeatherCatV1.11B39,2013-01-14 09:51:00,
2013-01-14 04:56:00,58.5,58.2,29.94,South,180,0.7,1.6,99,0.00,,,0.04,WeatherCatV1.11B39,2013-01-14 09:56:00,
2013-01-14 05:02:00,58.3,58.0,29.94,South,180,0.7,1.6,99,0.00,,,0.04,WeatherCatV1.11B39,2013-01-14 10:02:00,
2013-01-14 05:07:00,58.3,58.0,29.94,South,180,1.6,1.6,99,0.00,,,0.04,WeatherCatV1.11B39,2013-01-14 10:07:00,
2013-01-14 05:12:00,58.5,58.2,29.94,South,180,0.0,0.7,99,0.00,,,0.04,WeatherCatV1.11B39,2013-01-14 10:12:00,
2013-01-14 05:17:00,58.5,58.2,29.94,South,180,0.7,0.7,99,0.00,,,0.04,WeatherCatV1.11B39,2013-01-14 10:17:00,
2013-01-14 05:23:00,58.5,58.2,29.94,South,180,2.2,2.2,99,0.00,,,0.04,WeatherCatV1.11B39,2013-01-14 10:23:00,
2013-01-14 05:28:00,58.5,58.2,29.93,South,180,2.2,2.2,99,0.00,,,0.04,WeatherCatV1.11B39,2013-01-14 10:28:00,
2013-01-14 05:33:00,58.5,58.2,29.94,South,180,1.6,1.6,99,0.00,,,0.04,WeatherCatV1.11B39,2013-01-14 10:33:00,
2013-01-14 05:38:00,58.5,58.2,29.95,South,180,0.0,1.6,99,0.00,,,0.04,WeatherCatV1.11B39,2013-01-14 10:38:00,
2013-01-14 05:44:00,58.3,58.0,29.94,South,180,1.6,1.6,99,0.00,,,0.04,WeatherCatV1.11B39,2013-01-14 10:44:00,
2013-01-14 05:49:00,58.5,58.2,29.94,South,180,1.6,1.6,99,0.00,,,0.04,WeatherCatV1.11B39,2013-01-14 10:49:00,
2013-01-14 05:54:00,58.5,58.2,29.94,South,180,0.0,1.6,99,0.00,,,0.04,WeatherCatV1.11B39,2013-01-14 10:54:00,
2013-01-14 05:59:00,58.3,58.0,29.95,South,180,1.6,1.6,99,0.00,,,0.04,WeatherCatV1.11B39,2013-01-14 10:59:00,
2013-01-14 06:05:00,58.5,58.2,29.95,South,180,0.7,1.6,99,0.00,,,0.04,WeatherCatV1.11B39,2013-01-14 11:05:00,
2013-01-14 06:10:00,58.6,58.4,29.95,South,180,1.6,1.6,99,0.00,,,0.04,WeatherCatV1.11B39,2013-01-14 11:10:00,
2013-01-14 06:15:00,58.5,58.2,29.96,South,180,2.2,2.2,99,0.00,,,0.04,WeatherCatV1.11B39,2013-01-14 11:15:00,
2013-01-14 06:20:00,58.5,58.2,29.96,SW,225,0.7,0.7,99,0.00,,,0.04,WeatherCatV1.11B39,2013-01-14 11:20:00,
2013-01-14 06:26:00,58.5,58.2,29.97,South,180,0.0,0.0,99,0.00,,,0.04,WeatherCatV1.11B39,2013-01-14 11:26:00,
2013-01-14 06:31:00,58.5,58.2,29.98,South,180,0.7,1.6,99,0.00,,,0.04,WeatherCatV1.11B39,2013-01-14 11:31:00,
2013-01-14 06:36:00,58.5,58.2,29.97,South,180,0.7,0.7,99,0.00,,,0.04,WeatherCatV1.11B39,2013-01-14 11:36:00,
2013-01-14 06:41:00,58.5,58.2,29.97,South,180,1.6,1.6,99,0.00,,,0.04,WeatherCatV1.11B39,2013-01-14 11:41:00,
2013-01-14 06:47:00,58.6,58.4,29.98,South,180,1.6,1.6,99,0.00,,,0.04,WeatherCatV1.11B39,2013-01-14 11:47:00,
2013-01-14 06:52:00,58.6,58.4,29.98,South,180,0.7,1.6,99,0.00,,,0.04,WeatherCatV1.11B39,2013-01-14 11:52:00,
2013-01-14 06:57:00,58.8,58.5,29.98,South,180,2.2,2.2,99,0.00,,,0.04,WeatherCatV1.11B39,2013-01-14 11:57:00,
2013-01-14 07:02:00,58.8,58.5,29.98,South,180,0.7,0.7,99,0.00,,,0.04,WeatherCatV1.11B39,2013-01-14 12:02:00,
2013-01-14 07:08:00,58.6,58.4,29.98,South,180,1.6,1.6,99,0.00,,,0.04,WeatherCatV1.11B39,2013-01-14 12:08:00,
2013-01-14 07:13:00,58.6,58.4,29.98,South,180,2.2,2.2,99,0.00,,,0.04,WeatherCatV1.11B39,2013-01-14 12:13:00,
2013-01-14 07:18:00,58.8,58.5,29.98,South,180,2.2,2.2,99,0.00,,,0.04,WeatherCatV1.11B39,2013-01-14 12:18:00,
2013-01-14 07:23:00,58.8,58.5,29.99,SE,135,0.7,0.7,99,0.00,,,0.04,WeatherCatV1.11B39,2013-01-14 12:23:00,
2013-01-14 07:29:00,58.8,58.5,29.99,South,180,2.2,2.2,99,0.00,,,0.04,WeatherCatV1.11B39,2013-01-14 12:29:00,
2013-01-14 07:34:00,58.8,58.5,30.00,East,90,0.7,0.7,99,0.00,,,0.04,WeatherCatV1.11B39,2013-01-14 12:34:00,
2013-01-14 07:39:00,58.8,58.5,30.01,South,180,0.7,0.7,99,0.00,,,0.04,WeatherCatV1.11B39,2013-01-14 12:39:00,
2013-01-14 07:44:00,58.8,58.5,30.01,South,180,0.0,0.0,99,0.00,,,0.04,WeatherCatV1.11B39,2013-01-14 12:44:00,
2013-01-14 07:50:00,58.8,58.5,30.01,South,180,0.0,0.0,99,0.00,,,0.04,WeatherCatV1.11B39,2013-01-14 12:50:00,
2013-01-14 07:55:00,58.8,58.5,30.01,North,0,0.0,0.0,99,0.00,,,0.04,WeatherCatV1.11B39,2013-01-14 12:55:00,
2013-01-14 08:00:00,58.6,58.4,30.01,NW,315,0.7,1.6,99,0.00,,,0.04,WeatherCatV1.11B39,2013-01-14 13:00:00,
2013-01-14 08:05:00,58.5,58.2,30.03,NNE,22,2.2,2.2,99,0.00,,,0.04,WeatherCatV1.11B39,2013-01-14 13:05:00,
2013-01-14 08:11:00,58.1,57.8,30.04,North,0,3.1,3.1,99,0.00,,,0.04,WeatherCatV1.11B39,2013-01-14 13:11:00,
2013-01-14 08:16:00,58.8,58.5,30.05,North,0,3.1,3.1,99,0.00,,,0.04,WeatherCatV1.11B39,2013-01-14 13:16:00,
2013-01-14 08:21:00,59.2,58.9,30.05,West,270,3.1,4.5,99,0.00,,,0.04,WeatherCatV1.11B39,2013-01-14 13:21:00,
2013-01-14 08:26:00,59.7,59.4,30.06,NE,45,12.1,12.1,99,0.00,,,0.04,WeatherCatV1.11B39,2013-01-14 13:26:00,
2013-01-14 08:32:00,59.2,58.9,30.06,North,0,8.3,8.3,99,0.00,,,0.04,WeatherCatV1.11B39,2013-01-14 13:32:00,
2013-01-14 08:37:00,58.6,58.1,30.07,North,0,6.9,6.9,98,0.00,,,0.04,WeatherCatV1.11B39,2013-01-14 13:37:00,
2013-01-14 08:42:00,58.1,56.7,30.07,North,0,5.4,6.9,95,0.00,,,0.04,WeatherCatV1.11B39,2013-01-14 13:42:00,
2013-01-14 08:47:00,57.7,54.8,30.07,NW,315,7.6,7.6,90,0.00,,,0.04,WeatherCatV1.11B39,2013-01-14 13:47:00,
2013-01-14 08:53:00,57.4,53.2,30.07,SW,225,4.5,8.3,86,0.00,,,0.04,WeatherCatV1.11B39,2013-01-14 13:53:00,
2013-01-14 08:58:00,57.2,52.7,30.07,North,0,4.5,4.5,85,0.00,,,0.04,WeatherCatV1.11B39,2013-01-14 13:58:00,
2013-01-14 09:03:00,57.0,52.6,30.08,NW,315,6.0,6.0,85,0.00,,,0.04,WeatherCatV1.11B39,2013-01-14 14:03:00,
2013-01-14 09:08:00,56.7,51.9,30.08,NNW,337,6.0,6.9,84,0.00,,,0.04,WeatherCatV1.11B39,2013-01-14 14:08:00,
2013-01-14 09:14:00,56.7,51.6,30.09,North,0,9.2,9.8,83,0.00,,,0.04,WeatherCatV1.11B39,2013-01-14 14:14:00,
2013-01-14 09:19:00,56.5,51.4,30.08,North,0,6.0,6.0,83,0.00,,,0.04,WeatherCatV1.11B39,2013-01-14 14:19:00,
2013-01-14 09:24:00,56.5,51.0,30.08,North,0,3.8,8.3,82,0.00,,,0.04,WeatherCatV1.11B39,2013-01-14 14:24:00,
2013-01-14 09:29:00,56.5,51.0,30.09,NE,45,7.6,7.6,82,0.00,,,0.04,WeatherCatV1.11B39,2013-01-14 14:29:00,
2013-01-14 09:35:00,56.5,51.0,30.10,North,0,6.9,6.9,82,0.00,,,0.04,WeatherCatV1.11B39,2013-01-14 14:35:00,
2013-01-14 09:40:00,56.3,50.2,30.10,ENE,67,3.8,9.2,80,0.00,,,0.04,WeatherCatV1.11B39,2013-01-14 14:40:00,
2013-01-14 09:45:00,56.3,49.9,30.10,North,0,5.4,5.4,79,0.00,,,0.04,WeatherCatV1.11B39,2013-01-14 14:45:00,
2013-01-14 09:50:00,56.3,49.5,30.09,NW,315,6.9,6.9,78,0.00,,,0.04,WeatherCatV1.11B39,2013-01-14 14:50:00,
2013-01-14 09:56:00,56.3,48.8,30.10,SW,225,6.9,8.3,76,0.00,,,0.04,WeatherCatV1.11B39,2013-01-14 14:56:00,
2013-01-14 10:01:00,56.3,48.5,30.11,NNW,337,3.8,7.6,75,0.00,,,0.04,WeatherCatV1.11B39,2013-01-14 15:01:00,
2013-01-14 10:06:00,56.5,48.7,30.11,North,0,6.0,6.0,75,0.00,,,0.04,WeatherCatV1.11B39,2013-01-14 15:06:00,
2013-01-14 10:11:00,56.5,48.3,30.11,North,0,3.8,3.8,74,0.00,,,0.04,WeatherCatV1.11B39,2013-01-14 15:11:00,
2013-01-14 10:17:00,56.3,47.0,30.11,WNW,292,6.0,8.3,71,0.00,,,0.04,WeatherCatV1.11B39,2013-01-14 15:17:00,
2013-01-14 10:22:00,56.3,46.3,30.12,WNW,292,2.2,3.1,69,0.00,,,0.04,WeatherCatV1.11B39,2013-01-14 15:22:00,
2013-01-14 10:27:00,56.1,46.1,30.12,NE,45,6.0,7.6,69,0.00,,,0.04,WeatherCatV1.11B39,2013-01-14 15:27:00,
2013-01-14 10:32:00,56.1,45.7,30.13,North,0,6.0,7.6,68,0.00,,,0.04,WeatherCatV1.11B39,2013-01-14 15:32:00,
2013-01-14 10:38:00,56.1,45.7,30.13,North,0,3.8,5.4,68,0.00,,,0.04,WeatherCatV1.11B39,2013-01-14 15:38:00,
2013-01-14 10:43:00,55.9,45.5,30.12,WSW,247,2.2,3.1,68,0.00,,,0.04,WeatherCatV1.11B39,2013-01-14 15:43:00,
2013-01-14 10:48:00,55.9,45.1,30.12,North,0,4.5,5.4,67,0.00,,,0.04,WeatherCatV1.11B39,2013-01-14 15:48:00,
2013-01-14 10:53:00,55.8,45.0,30.12,North,0,5.4,6.9,67,0.00,,,0.04,WeatherCatV1.11B39,2013-01-14 15:53:00,
2013-01-14 10:59:00,55.6,44.8,30.12,North,0,6.0,6.0,67,0.00,,,0.04,WeatherCatV1.11B39,2013-01-14 15:59:00,
2013-01-14 11:04:00,55.6,45.2,30.12,North,0,5.4,5.4,68,0.00,,,0.04,WeatherCatV1.11B39,2013-01-14 16:04:00,
2013-01-14 11:09:00,55.6,45.2,30.11,North,0,3.1,3.1,68,0.00,,,0.04,WeatherCatV1.11B39,2013-01-14 16:09:00,
2013-01-14 11:14:00,55.6,44.8,30.11,SW,225,4.5,5.4,67,0.00,,,0.04,WeatherCatV1.11B39,2013-01-14 16:14:00,
2013-01-14 11:20:00,55.6,44.4,30.11,North,0,3.8,4.5,66,0.00,,,0.04,WeatherCatV1.11B39,2013-01-14 16:20:00,
2013-01-14 11:25:00,55.4,44.2,30.12,North,0,6.0,6.0,66,0.00,,,0.04,WeatherCatV1.11B39,2013-01-14 16:25:00,
2013-01-14 11:30:00,55.4,44.2,30.11,North,0,3.8,3.8,66,0.00,,,0.04,WeatherCatV1.11B39,2013-01-14 16:30:00,
2013-01-14 11:35:00,55.4,44.6,30.11,North,0,3.8,3.8,67,0.00,,,0.04,WeatherCatV1.11B39,2013-01-14 16:35:00,
2013-01-14 11:41:00,55.2,44.8,30.12,NNW,337,4.5,4.5,68,0.00,,,0.04,WeatherCatV1.11B39,2013-01-14 16:41:00,
2013-01-14 11:46:00,55.2,44.1,30.12,North,0,4.5,9.2,66,0.00,,,0.04,WeatherCatV1.11B39,2013-01-14 16:46:00,
2013-01-14 11:51:00,55.2,43.7,30.12,NE,45,3.1,6.0,65,0.00,,,0.04,WeatherCatV1.11B39,2013-01-14 16:51:00,
2013-01-14 11:56:00,55.0,43.9,30.11,North,0,4.5,6.0,66,0.00,,,0.04,WeatherCatV1.11B39,2013-01-14 16:56:00,
2013-01-14 12:02:00,54.9,43.3,30.11,NNE,22,3.8,8.3,65,0.00,,,0.04,WeatherCatV1.11B39,2013-01-14 17:02:00,
2013-01-14 12:07:00,54.9,43.3,30.11,North,0,6.9,6.9,65,0.00,,,0.04,WeatherCatV1.11B39,2013-01-14 17:07:00,
2013-01-14 12:12:00,54.7,43.1,30.11,NW,315,3.1,3.1,65,0.00,,,0.04,WeatherCatV1.11B39,2013-01-14 17:12:00,
2013-01-14 12:17:00,54.5,42.6,30.11,NW,315,3.1,4.5,64,0.00,,,0.04,WeatherCatV1.11B39,2013-01-14 17:17:00,
2013-01-14 12:23:00,54.3,42.4,30.10,North,0,5.4,5.4,64,0.00,,,0.04,WeatherCatV1.11B39,2013-01-14 17:23:00,
2013-01-14 12:28:00,54.1,42.2,30.11,North,0,2.2,4.5,64,0.00,,,0.04,WeatherCatV1.11B39,2013-01-14 17:28:00,
2013-01-14 12:33:00,54.0,42.1,30.11,North,0,5.4,5.4,64,0.00,,,0.04,WeatherCatV1.11B39,2013-01-14 17:33:00,
2013-01-14 12:38:00,54.0,42.1,30.10,North,0,3.1,3.1,64,0.00,,,0.04,WeatherCatV1.11B39,2013-01-14 17:38:00,
2013-01-14 12:44:00,53.8,42.3,30.10,South,180,0.7,2.2,65,0.00,,,0.04,WeatherCatV1.11B39,2013-01-14 17:44:00,
2013-01-14 12:49:00,53.8,42.3,30.11,North,0,3.8,3.8,65,0.00,,,0.04,WeatherCatV1.11B39,2013-01-14 17:49:00,
2013-01-14 12:54:00,53.6,42.1,30.11,WNW,292,1.6,2.2,65,0.00,,,0.04,WeatherCatV1.11B39,2013-01-14 17:54:00,
2013-01-14 12:59:00,53.4,42.3,30.11,NNE,22,3.1,3.1,66,0.00,,,0.04,WeatherCatV1.11B39,2013-01-14 17:59:00,
2013-01-14 13:05:00,53.4,42.3,30.11,North,0,3.8,4.5,66,0.00,,,0.04,WeatherCatV1.11B39,2013-01-14 18:05:00,
2013-01-14 13:10:00,53.4,42.3,30.12,North,0,5.4,5.4,66,0.00,,,0.04,WeatherCatV1.11B39,2013-01-14 18:10:00,
2013-01-14 13:15:00,53.2,42.6,30.12,North,0,3.1,3.1,67,0.00,,,0.04,WeatherCatV1.11B39,2013-01-14 18:15:00,
2013-01-14 13:20:00,53.2,42.6,30.12,NE,45,3.1,3.1,67,0.00,,,0.04,WeatherCatV1.11B39,2013-01-14 18:20:00,
2013-01-14 13:26:00,53.1,42.4,30.11,West,270,1.6,3.1,67,0.00,,,0.04,WeatherCatV1.11B39,2013-01-14 18:26:00,
2013-01-14 13:31:00,52.9,42.2,30.11,North,0,3.1,3.8,67,0.00,,,0.04,WeatherCatV1.11B39,2013-01-14 18:31:00,
2013-01-14 13:36:00,52.9,42.6,30.11,North,0,3.8,3.8,68,0.00,,,0.04,WeatherCatV1.11B39,2013-01-14 18:36:00,
2013-01-14 13:41:00,52.9,42.2,30.10,North,0,4.5,4.5,67,0.00,,,0.04,WeatherCatV1.11B39,2013-01-14 18:41:00,
2013-01-14 13:47:00,52.9,42.2,30.10,NW,315,3.8,4.5,67,0.00,,,0.04,WeatherCatV1.11B39,2013-01-14 18:47:00,
2013-01-14 13:52:00,52.7,42.4,30.10,North,0,3.8,3.8,68,0.00,,,0.04,WeatherCatV1.11B39,2013-01-14 18:52:00,
2013-01-14 13:57:00,52.7,42.4,30.11,East,90,3.8,3.8,68,0.00,,,0.04,WeatherCatV1.11B39,2013-01-14 18:57:00,
2013-01-14 14:02:00,52.7,42.4,30.11,North,0,2.2,2.2,68,0.00,,,0.04,WeatherCatV1.11B39,2013-01-14 19:02:00,
2013-01-14 14:08:00,52.7,42.4,30.12,North,0,3.8,3.8,68,0.00,,,0.04,WeatherCatV1.11B39,2013-01-14 19:08:00,
2013-01-14 14:13:00,52.7,42.1,30.13,ENE,67,4.5,4.5,67,0.00,,,0.04,WeatherCatV1.11B39,2013-01-14 19:13:00,
2013-01-14 14:18:00,52.7,41.3,30.13,North,0,3.8,3.8,65,0.00,,,0.04,WeatherCatV1.11B39,2013-01-14 19:18:00,
2013-01-14 14:23:00,52.5,41.1,30.13,NE,45,3.8,6.0,65,0.00,,,0.04,WeatherCatV1.11B39,2013-01-14 19:23:00,
2013-01-14 14:29:00,52.5,41.1,30.12,NE,45,2.2,2.2,65,0.00,,,0.04,WeatherCatV1.11B39,2013-01-14 19:29:00,
2013-01-14 14:34:00,52.3,40.9,30.12,NNE,22,2.2,2.2,65,0.00,,,0.04,WeatherCatV1.11B39,2013-01-14 19:34:00,
2013-01-14 14:39:00,52.3,40.5,30.13,NE,45,3.8,3.8,64,0.00,,,0.04,WeatherCatV1.11B39,2013-01-14 19:39:00,
2013-01-14 14:44:00,52.2,40.4,30.13,North,0,3.1,3.1,64,0.00,,,0.04,WeatherCatV1.11B39,2013-01-14 19:44:00,
2013-01-14 14:50:00,52.0,40.2,30.13,NE,45,1.6,4.5,64,0.00,,,0.04,WeatherCatV1.11B39,2013-01-14 19:50:00,
2013-01-14 14:55:00,52.0,40.2,30.12,NW,315,2.2,2.2,64,0.00,,,0.04,WeatherCatV1.11B39,2013-01-14 19:55:00,
2013-01-14 15:00:00,51.8,40.0,30.12,North,0,2.2,2.2,64,0.00,,,0.04,WeatherCatV1.11B39,2013-01-14 20:00:00,
2013-01-14 15:05:00,51.8,40.4,30.14,North,0,5.4,5.4,65,0.00,,,0.04,WeatherCatV1.11B39,2013-01-14 20:05:00,
2013-01-14 15:11:00,51.6,40.6,30.14,SW,225,3.1,4.5,66,0.00,,,0.04,WeatherCatV1.11B39,2013-01-14 20:11:00,
2013-01-14 15:16:00,51.6,40.6,30.15,North,0,2.2,3.1,66,0.00,,,0.04,WeatherCatV1.11B39,2013-01-14 20:16:00,
2013-01-14 15:21:00,51.4,40.5,30.16,NW,315,2.2,2.2,66,0.00,,,0.04,WeatherCatV1.11B39,2013-01-14 20:21:00,
2013-01-14 15:26:00,51.3,40.7,30.16,North,0,2.2,2.2,67,0.00,,,0.04,WeatherCatV1.11B39,2013-01-14 20:26:00,
2013-01-14 15:32:00,51.3,40.7,30.17,North,0,2.2,2.2,67,0.00,,,0.04,WeatherCatV1.11B39,2013-01-14 20:32:00,
2013-01-14 15:37:00,51.3,40.3,30.17,North,0,1.6,1.6,66,0.00,,,0.04,WeatherCatV1.11B39,2013-01-14 20:37:00,
2013-01-14 15:42:00,51.1,40.5,30.17,South,180,1.6,2.2,67,0.00,,,0.04,WeatherCatV1.11B39,2013-01-14 20:42:00,
2013-01-14 15:47:00,50.9,40.0,30.17,East,90,3.1,3.1,66,0.00,,,0.04,WeatherCatV1.11B39,2013-01-14 20:47:00,
2013-01-14 15:53:00,50.9,40.0,30.17,NE,45,2.2,3.1,66,0.00,,,0.04,WeatherCatV1.11B39,2013-01-14 20:53:00,
2013-01-14 15:58:00,50.7,39.8,30.16,SW,225,0.0,0.0,66,0.00,,,0.04,WeatherCatV1.11B39,2013-01-14 20:58:00,
2013-01-14 16:03:00,50.7,40.2,30.16,SW,225,0.0,0.0,67,0.00,,,0.04,WeatherCatV1.11B39,2013-01-14 21:03:00,
2013-01-14 16:08:00,50.7,40.2,30.17,North,0,0.7,0.7,67,0.00,,,0.04,WeatherCatV1.11B39,2013-01-14 21:08:00,
2013-01-14 16:14:00,50.7,40.2,30.16,NW,315,1.6,1.6,67,0.00,,,0.04,WeatherCatV1.11B39,2013-01-14 21:14:00,
2013-01-14 16:19:00,50.7,40.2,30.15,SW,225,0.0,0.7,67,0.00,,,0.04,WeatherCatV1.11B39,2013-01-14 21:19:00,
2013-01-14 16:24:00,50.7,40.5,30.15,SW,225,0.0,0.0,68,0.00,,,0.04,WeatherCatV1.11B39,2013-01-14 21:24:00,
2013-01-14 16:29:00,50.7,40.2,30.15,NW,315,0.7,1.6,67,0.00,,,0.04,WeatherCatV1.11B39,2013-01-14 21:29:00,
2013-01-14 16:35:00,50.7,40.2,30.15,North,0,0.0,0.0,67,0.00,,,0.04,WeatherCatV1.11B39,2013-01-14 21:35:00,
2013-01-14 16:40:00,50.5,40.4,30.14,SW,225,2.2,2.2,68,0.00,,,0.04,WeatherCatV1.11B39,2013-01-14 21:40:00,
2013-01-14 16:45:00,50.5,40.4,30.15,North,0,0.7,0.7,68,0.00,,,0.04,WeatherCatV1.11B39,2013-01-14 21:45:00,
2013-01-14 16:50:00,50.5,40.4,30.16,North,0,0.7,0.7,68,0.00,,,0.04,WeatherCatV1.11B39,2013-01-14 21:50:00,
2013-01-14 16:56:00,50.5,40.8,30.16,North,0,0.7,1.6,69,0.00,,,0.04,WeatherCatV1.11B39,2013-01-14 21:56:00,
2013-01-14 17:01:00,50.4,40.6,30.18,North,0,2.2,2.2,69,0.00,,,0.04,WeatherCatV1.11B39,2013-01-14 22:01:00,
2013-01-14 17:06:00,50.4,40.6,30.17,North,0,1.6,1.6,69,0.00,,,0.04,WeatherCatV1.11B39,2013-01-14 22:06:00,
2013-01-14 17:12:00,50.5,40.4,30.17,NW,315,0.0,0.0,68,0.00,,,0.04,WeatherCatV1.11B39,2013-01-14 22:12:00,
2013-01-14 17:17:00,50.4,40.6,30.17,South,180,0.7,0.7,69,0.00,,,0.04,WeatherCatV1.11B39,2013-01-14 22:17:00,
2013-01-14 17:22:00,50.4,41.0,30.17,South,180,0.0,0.7,70,0.00,,,0.04,WeatherCatV1.11B39,2013-01-14 22:22:00,
2013-01-14 17:27:00,50.4,40.6,30.17,South,180,0.7,0.7,69,0.00,,,0.04,WeatherCatV1.11B39,2013-01-14 22:27:00,
2013-01-14 17:33:00,50.2,40.8,30.18,NE,45,0.0,0.0,70,0.00,,,0.04,WeatherCatV1.11B39,2013-01-14 22:33:00,
2013-01-14 17:38:00,50.4,40.6,30.19,North,0,0.7,0.7,69,0.00,,,0.04,WeatherCatV1.11B39,2013-01-14 22:38:00,
2013-01-14 17:43:00,50.2,41.1,30.19,North,0,1.6,1.6,71,0.00,,,0.04,WeatherCatV1.11B39,2013-01-14 22:43:00,
2013-01-14 17:48:00,50.2,40.8,30.18,North,0,0.7,0.7,70,0.00,,,0.04,WeatherCatV1.11B39,2013-01-14 22:48:00,
2013-01-14 17:53:00,50.4,40.6,30.17,South,180,1.6,1.6,69,0.00,,,0.04,WeatherCatV1.11B39,2013-01-14 22:53:00,
2013-01-14 17:59:00,50.5,40.4,30.17,NNW,337,0.7,1.6,68,0.00,,,0.04,WeatherCatV1.11B39,2013-01-14 22:59:00,
2013-01-14 18:04:00,50.5,40.8,30.17,NW,315,0.0,0.0,69,0.00,,,0.04,WeatherCatV1.11B39,2013-01-14 23:04:00,
2013-01-14 18:09:00,50.4,41.0,30.18,North,0,1.6,2.2,70,0.00,,,0.04,WeatherCatV1.11B39,2013-01-14 23:09:00,
2013-01-14 18:14:00,50.2,40.8,30.19,East,90,1.6,1.6,70,0.00,,,0.04,WeatherCatV1.11B39,2013-01-14 23:14:00,
2013-01-14 18:20:00,50.2,41.1,30.19,NNW,337,2.2,2.2,71,0.00,,,0.04,WeatherCatV1.11B39,2013-01-14 23:20:00,
2013-01-14 18:25:00,50.2,40.4,30.20,NNW,337,1.6,1.6,69,0.00,,,0.04,WeatherCatV1.11B39,2013-01-14 23:25:00,
2013-01-14 18:30:00,50.2,40.4,30.19,NNW,337,2.2,2.2,69,0.00,,,0.04,WeatherCatV1.11B39,2013-01-14 23:30:00,
2013-01-14 18:36:00,50.2,40.0,30.19,North,0,1.6,1.6,68,0.00,,,0.04,WeatherCatV1.11B39,2013-01-14 23:36:00,
2013-01-14 18:41:00,50.2,40.0,30.20,NNW,337,2.2,3.1,68,0.00,,,0.04,WeatherCatV1.11B39,2013-01-14 23:41:00,
2013-01-14 18:46:00,50.2,39.7,30.21,North,0,3.8,3.8,67,0.00,,,0.04,WeatherCatV1.11B39,2013-01-14 23:46:00,
2013-01-14 18:51:00,50.2,39.3,30.21,North,0,2.2,5.4,66,0.00,,,0.04,WeatherCatV1.11B39,2013-01-14 23:51:00,
2013-01-14 18:57:00,50.2,39.7,30.21,North,0,3.8,3.8,67,0.00,,,0.04,WeatherCatV1.11B39,2013-01-14 23:57:00,
2013-01-14 19:02:00,50.0,39.1,30.22,North,0,2.2,3.8,66,0.00,,,0.04,WeatherCatV1.11B39,2013-01-15 00:02:00,
2013-01-14 19:07:00,49.8,38.9,30.22,North,0,2.2,3.8,66,0.00,,,0.04,WeatherCatV1.11B39,2013-01-15 00:07:00,
2013-01-14 19:12:00,49.8,38.9,30.23,North,0,3.8,4.5,66,0.00,,,0.04,WeatherCatV1.11B39,2013-01-15 00:12:00,
2013-01-14 19:18:00,49.6,38.8,30.23,West,270,3.8,5.4,66,0.00,,,0.04,WeatherCatV1.11B39,2013-01-15 00:18:00,
2013-01-14 19:23:00,49.6,38.8,30.23,North,0,2.2,2.2,66,0.00,,,0.04,WeatherCatV1.11B39,2013-01-15 00:23:00,
2013-01-14 19:28:00,49.5,38.6,30.23,WNW,292,2.2,3.8,66,0.00,,,0.04,WeatherCatV1.11B39,2013-01-15 00:28:00,
2013-01-14 19:33:00,49.5,38.6,30.22,SW,225,0.7,1.6,66,0.00,,,0.04,WeatherCatV1.11B39,2013-01-15 00:33:00,
2013-01-14 19:39:00,49.3,38.4,30.23,North,0,2.2,2.2,66,0.00,,,0.04,WeatherCatV1.11B39,2013-01-15 00:39:00,
2013-01-14 19:44:00,49.3,38.4,30.23,North,0,2.2,2.2,66,0.00,,,0.04,WeatherCatV1.11B39,2013-01-15 00:44:00,
2013-01-14 19:49:00,49.3,38.4,30.24,North,0,2.2,3.1,66,0.00,,,0.04,WeatherCatV1.11B39,2013-01-15 00:49:00,
2013-01-14 19:54:00,49.3,38.4,30.24,North,0,2.2,2.2,66,0.00,,,0.04,WeatherCatV1.11B39,2013-01-15 00:54:00,
2013-01-14 19:59:00,49.3,38.4,30.24,North,0,3.1,3.1,66,0.00,,,0.04,WeatherCatV1.11B39,2013-01-15 00:59:00,
2013-01-14 20:04:00,48.9,38.8,30.24,North,0,2.2,2.2,68,0.00,,,0.04,WeatherCatV1.11B39,2013-01-15 01:04:00,
2013-01-14 20:10:00,48.6,38.9,30.24,North,0,2.2,3.1,69,0.00,,,0.04,WeatherCatV1.11B39,2013-01-15 01:10:00,
2013-01-14 20:15:00,48.2,38.9,30.24,North,0,2.2,4.5,70,0.00,,,0.04,WeatherCatV1.11B39,2013-01-15 01:15:00,
2013-01-14 20:20:00,48.0,39.1,30.25,North,0,3.1,4.5,71,0.00,,,0.04,WeatherCatV1.11B39,2013-01-15 01:20:00,
2013-01-14 20:25:00,47.7,38.7,30.25,NNW,337,3.1,3.8,71,0.00,,,0.04,WeatherCatV1.11B39,2013-01-15 01:25:00,
2013-01-14 20:30:00,47.5,38.9,30.25,West,270,3.8,3.8,72,0.00,,,0.04,WeatherCatV1.11B39,2013-01-15 01:30:00,
2013-01-14 20:36:00,47.1,38.9,30.25,NW,315,2.2,3.1,73,0.00,,,0.04,WeatherCatV1.11B39,2013-01-15 01:36:00,
2013-01-14 20:41:00,46.9,39.1,30.25,WSW,247,2.2,3.8,74,0.00,,,0.04,WeatherCatV1.11B39,2013-01-15 01:41:00,
2013-01-14 20:46:00,46.8,39.3,30.24,NE,45,4.5,4.5,75,0.00,,,0.04,WeatherCatV1.11B39,2013-01-15 01:46:00,
2013-01-14 20:52:00,46.4,38.9,30.24,West,270,3.1,3.1,75,0.00,,,0.04,WeatherCatV1.11B39,2013-01-15 01:52:00,
2013-01-14 20:57:00,46.0,38.6,30.24,North,0,3.8,3.8,75,0.00,,,0.05,WeatherCatV1.11B39,2013-01-15 01:57:00,
2013-01-14 21:02:00,45.7,38.9,30.24,NW,315,1.6,3.1,77,0.00,,,0.05,WeatherCatV1.11B39,2013-01-15 02:02:00,
2013-01-14 21:07:00,45.3,39.2,30.24,North,0,4.5,4.5,79,0.00,,,0.05,WeatherCatV1.11B39,2013-01-15 02:07:00,
2013-01-14 21:13:00,45.0,39.5,30.24,SW,225,2.2,3.1,81,0.00,,,0.05,WeatherCatV1.11B39,2013-01-15 02:13:00,
2013-01-14 21:18:00,44.6,39.5,30.24,North,0,2.2,3.1,82,0.01,,,0.05,WeatherCatV1.11B39,2013-01-15 02:18:00,
2013-01-14 21:23:00,44.2,39.4,30.24,NW,315,3.1,3.8,83,0.00,,,0.05,WeatherCatV1.11B39,2013-01-15 02:23:00,
2013-01-14 21:28:00,44.1,39.5,30.24,North,0,2.2,2.2,84,0.02,,,0.05,WeatherCatV1.11B39,2013-01-15 02:28:00,
2013-01-14 21:33:00,43.7,39.2,30.24,North,0,2.2,3.8,84,0.01,,,0.05,WeatherCatV1.11B39,2013-01-15 02:33:00,
2013-01-14 21:39:00,43.7,39.2,30.24,NW,315,1.6,1.6,84,0.01,,,0.05,WeatherCatV1.11B39,2013-01-15 02:39:00,
2013-01-14 21:44:00,43.3,38.8,30.24,NW,315,2.2,3.1,84,0.00,,,0.05,WeatherCatV1.11B39,2013-01-15 02:44:00,
2013-01-14 21:49:00,43.2,38.7,30.24,North,0,2.2,2.2,84,0.00,,,0.05,WeatherCatV1.11B39,2013-01-15 02:49:00,
2013-01-14 21:54:00,43.2,39.0,30.24,NNW,337,3.8,3.8,85,0.00,,,0.06,WeatherCatV1.11B39,2013-01-15 02:54:00,
2013-01-14 21:59:00,43.2,39.3,30.24,North,0,2.2,3.1,86,0.00,,,0.06,WeatherCatV1.11B39,2013-01-15 02:59:00,
2013-01-14 22:05:00,43.2,39.6,30.25,NNW,337,6.0,6.0,87,0.00,,,0.06,WeatherCatV1.11B39,2013-01-15 03:05:00,
2013-01-14 22:10:00,43.0,39.4,30.26,North,0,4.5,4.5,87,0.00,,,0.06,WeatherCatV1.11B39,2013-01-15 03:10:00,
2013-01-14 22:15:00,42.8,39.2,30.26,NE,45,3.1,3.1,87,0.00,,,0.06,WeatherCatV1.11B39,2013-01-15 03:15:00,
2013-01-14 22:20:00,42.6,39.3,30.26,North,0,3.8,3.8,88,0.00,,,0.06,WeatherCatV1.11B39,2013-01-15 03:20:00,
2013-01-14 22:26:00,42.6,39.3,30.26,NE,45,5.4,5.4,88,0.00,,,0.06,WeatherCatV1.11B39,2013-01-15 03:26:00,
2013-01-14 22:31:00,42.3,39.0,30.27,North,0,5.4,5.4,88,0.02,,,0.06,WeatherCatV1.11B39,2013-01-15 03:31:00,
2013-01-14 22:36:00,42.1,38.8,30.27,North,0,5.4,5.4,88,0.02,,,0.06,WeatherCatV1.11B39,2013-01-15 03:36:00,
2013-01-14 22:41:00,41.7,38.4,30.26,NNW,337,4.5,4.5,88,0.02,,,0.07,WeatherCatV1.11B39,2013-01-15 03:41:00,
2013-01-14 22:47:00,41.5,38.3,30.26,NE,45,3.1,3.1,88,0.01,,,0.07,WeatherCatV1.11B39,2013-01-15 03:47:00,
2013-01-14 22:52:00,41.4,38.1,30.26,NE,45,3.8,3.8,88,0.01,,,0.07,WeatherCatV1.11B39,2013-01-15 03:52:00,
2013-01-14 22:57:00,41.2,38.2,30.26,West,270,3.8,3.8,89,0.00,,,0.07,WeatherCatV1.11B39,2013-01-15 03:57:00,
2013-01-14 23:02:00,41.2,38.2,30.26,North,0,1.6,1.6,89,0.00,,,0.07,WeatherCatV1.11B39,2013-01-15 04:02:00,
2013-01-14 23:07:00,41.2,38.5,30.26,North,0,3.1,3.1,90,0.01,,,0.07,WeatherCatV1.11B39,2013-01-15 04:07:00,
2013-01-14 23:13:00,41.0,38.3,30.26,North,0,1.6,2.2,90,0.00,,,0.07,WeatherCatV1.11B39,2013-01-15 04:13:00,
2013-01-14 23:18:00,40.8,38.4,30.26,North,0,2.2,3.8,91,0.02,,,0.07,WeatherCatV1.11B39,2013-01-15 04:18:00,
2013-01-14 23:23:00,40.6,38.2,30.26,SW,225,3.1,3.1,91,0.01,,,0.07,WeatherCatV1.11B39,2013-01-15 04:23:00,
2013-01-14 23:28:00,40.5,38.0,30.26,NW,315,3.1,4.5,91,0.01,,,0.08,WeatherCatV1.11B39,2013-01-15 04:28:00,
2013-01-14 23:34:00,40.5,38.0,30.26,West,270,2.2,4.5,91,0.01,,,0.08,WeatherCatV1.11B39,2013-01-15 04:34:00,
2013-01-14 23:39:00,40.3,37.9,30.26,NNE,22,1.6,3.1,91,0.00,,,0.08,WeatherCatV1.11B39,2013-01-15 04:39:00,
2013-01-14 23:44:00,40.3,37.9,30.26,SW,225,2.2,3.8,91,0.00,,,0.08,WeatherCatV1.11B39,2013-01-15 04:44:00,
2013-01-14 23:49:00,40.1,37.7,30.26,North,0,2.2,3.8,91,0.00,,,0.08,WeatherCatV1.11B39,2013-01-15 04:49:00,
2013-01-14 23:55:00,40.1,37.7,30.26,NW,315,0.7,0.7,91,0.00,,,0.08,WeatherCatV1.11B39,2013-01-15 04:55:00,